Watertown, NY

3:55 PM EST on November 21, 2019 (GMT -0500)
Watertown International

Weather History for KART - September, 2019

Change the Weather History Date:

Saturday, September 28, 2019

  Actual Average Record
Temperature  
Mean Temperature 66 °F 55 °F  
Max Temperature 74 °F 65 °F 85 °F (1959)
Min Temperature 57 °F 44 °F 27 °F (1957)
Degree Days  
Heating Degree Days 0 11  
Month to date heating degree days 152 179  
Since 1 July heating degree days 181 251  
Cooling Degree Days 1 0  
Month to date cooling degree days 20 36  
Year to date cooling degree days 341 360  
Growing Degree Days 18 (Base 50)    
Moisture  
Dew Point 59 °F    
Average Humidity 74    
Maximum Humidity 93    
Minimum Humidity 55    
Precipitation  
Precipitation 0.08 in 0.14 in 1.21 in (2011)
Month to date precipitation 3.32 3.45  
Year to date precipitation 31.41 25.25  
Sea Level Pressure  
Sea Level Pressure 29.99 in    
Wind  
Wind Speed 8 mph (SSW)    
Max Wind Speed 17 mph    
Max Gust Speed 24 mph    
Visibility 9 miles    
Events Rain    
T = Trace of Precipitation, MM = Missing Value Source: NWS Daily Summary

Daily Weather History Graph

Daily Weather History Graph

Search for Another Location

Airport or City:

Astronomy

Sep. 28, 2019 Rise Set
Actual Time 6:57 AM EDT 6:50 PM EDT
Civil Twilight 6:29 AM EDT 7:19 PM EDT
Nautical Twilight 5:55 AM EDT 7:53 PM EDT
Astronomical Twilight 5:21 AM EDT 8:27 PM EDT
Moon 6:28 AM EDT (9/28) 7:16 PM EDT (9/28)
Length of Visible Light 12h 50m
Length of Day
11h 52m
Waning Crescent, 0% of the Moon is Illuminated
Sep 28
Waning Crescent
Sep 28
New
Oct 5
First Quarter
Oct 13
Full
Oct 21
Last Quarter

Hourly Weather History & Observations

Time (EDT) Temp. Dew Point Humidity Pressure Visibility Wind Dir Wind Speed Gust Speed Precip Events Conditions
12:56 AM 68.0 °F 51.1 °F 55% 29.89 in 10.0 mi SW 8.1 mph 16.1 mph N/A   Overcast
1:56 AM 68.0 °F 51.1 °F 55% 29.90 in 10.0 mi South 6.9 mph 18.4 mph N/A   Overcast
2:56 AM 68.0 °F 52.0 °F 56% 29.88 in 10.0 mi South 8.1 mph 16.1 mph N/A   Overcast
3:56 AM 68.0 °F 53.1 °F 59% 29.88 in 10.0 mi South 10.4 mph 24.2 mph 0.00 in   Overcast
4:56 AM 69.1 °F 54.0 °F 58% 29.90 in 10.0 mi South 10.4 mph 18.4 mph N/A   Overcast
5:56 AM 66.9 °F 55.0 °F 66% 29.91 in 10.0 mi Variable 6.9 mph - N/A   Mostly Cloudy
6:56 AM 66.9 °F 55.0 °F 66% 29.91 in 10.0 mi South 9.2 mph 16.1 mph N/A   Overcast
7:56 AM 68.0 °F 55.9 °F 65% 29.94 in 10.0 mi South 9.2 mph - 0.00 in   Overcast
8:45 AM 64.9 °F 57.9 °F 78% 29.93 in 1.8 mi South 4.6 mph - 0.05 in Rain Heavy Rain
8:56 AM 64.0 °F 57.9 °F 80% 29.91 in 2.5 mi SSE 8.1 mph - 0.06 in Rain Rain
9:04 AM 64.0 °F 59.0 °F 84% 29.90 in 5.0 mi SSE 6.9 mph - 0.01 in Rain Light Rain
9:56 AM 66.0 °F 60.1 °F 81% 29.94 in 10.0 mi SW 5.8 mph - 0.01 in   Mostly Cloudy
10:40 AM 66.9 °F 60.1 °F 79% 29.95 in 10.0 mi SSW 8.1 mph - N/A   Overcast
10:56 AM 68.0 °F 60.1 °F 76% 29.95 in 10.0 mi SSW 8.1 mph - N/A   Overcast
11:56 AM 69.1 °F 61.0 °F 75% 29.96 in 10.0 mi SSW 6.9 mph - N/A   Overcast
12:04 PM 70.0 °F 60.1 °F 71% 29.96 in 10.0 mi SSW 8.1 mph - N/A   Overcast
12:56 PM 73.0 °F 62.1 °F 68% 29.96 in 10.0 mi WSW 11.5 mph 21.9 mph N/A   Overcast
1:26 PM 71.1 °F 62.1 °F 73% 29.98 in 10.0 mi SW 8.1 mph 21.9 mph N/A   Overcast
1:56 PM 71.1 °F 61.0 °F 70% 29.97 in 10.0 mi SW 11.5 mph - N/A   Scattered Clouds
2:56 PM 70.0 °F 62.1 °F 76% 29.98 in 10.0 mi SW 11.5 mph - N/A   Overcast
3:56 PM 68.0 °F 64.0 °F 87% 29.99 in 10.0 mi WSW 12.7 mph 18.4 mph 0.00 in   Overcast
4:56 PM 68.0 °F 64.0 °F 87% 30.01 in 10.0 mi WSW 6.9 mph - N/A   Overcast
5:56 PM 68.0 °F 64.0 °F 87% 30.02 in 10.0 mi WSW 8.1 mph - N/A   Overcast
6:42 PM 66.9 °F 64.0 °F 90% 30.05 in 10.0 mi WSW 4.6 mph - 0.00 in   Overcast
6:56 PM 66.9 °F 64.0 °F 90% 30.05 in 10.0 mi West 5.8 mph - 0.00 in   Overcast
7:20 PM 64.0 °F 61.0 °F 90% 30.08 in 8.0 mi North 10.4 mph - 0.01 in Rain Light Rain
7:33 PM 63.0 °F 60.1 °F 90% 30.08 in 10.0 mi NNE 11.5 mph - 0.01 in   Overcast
7:56 PM 63.0 °F 60.1 °F 90% 30.09 in 10.0 mi NE 4.6 mph - 0.01 in   Overcast
8:56 PM 63.0 °F 61.0 °F 93% 30.12 in 10.0 mi Calm Calm - N/A   Overcast
9:19 PM 62.1 °F 60.1 °F 93% 30.13 in 10.0 mi Calm Calm - N/A   Overcast
9:56 PM 62.1 °F 61.0 °F 96% 30.15 in 10.0 mi Calm Calm - N/A   Overcast
10:56 PM 62.1 °F 57.0 °F 84% 30.18 in 10.0 mi North 10.4 mph - N/A   Overcast
11:56 PM 60.1 °F 55.9 °F 86% 30.20 in 10.0 mi North 10.4 mph - N/A   Overcast